Weather History for Ely, MN

Change the Weather History Date:

Wednesday, October 3, 2012

  Actual Average Record
Temperature  
Mean Temperature 54 °F -  
Max Temperature 71 °F 55 °F 78 °F (2011)
Min Temperature 37 °F 35 °F 21 °F (1999)
Degree Days  
Heating Degree Days 11    
Growing Degree Days 4 (Base 50)    
Moisture  
Dew Point 38 °F    
Average Humidity 53    
Maximum Humidity 93    
Minimum Humidity 27    
Precipitation  
Precipitation 0.00 in - - ()
Sea Level Pressure  
Sea Level Pressure 29.88 in    
Wind  
Wind Speed 3 mph (SW)    
Max Wind Speed 7 mph    
Max Gust Speed -    
Visibility 9 miles    
Events      
Averages and records for this station are not official NWS values.
T = Trace of Precipitation, MM = Missing Value Source: NWS Daily Summary

Daily Weather History Graph

Daily Weather History Graph

Search for Another Location

Airport:

Trip Planner

Search our weather history database for the weather conditions in past years. The results will help you decide how hot, cold, wet, or windy it might be!

Date:

Astronomy

Oct. 03, 2012 Rise Set
Actual Time 7:09 AM CDT 6:41 PM CDT
Civil Twilight 6:39 AM CDT 7:12 PM CDT
Nautical Twilight 6:03 AM CDT 7:48 PM CDT
Astronomical Twilight 5:26 AM CDT 8:24 PM CDT
Moon 8:15 PM CDT (10/3) 10:51 AM CDT (10/3)
Length of Visible Light 12h 33m
Length of Day
11h 31m
Waning Gibbous, 88% of the Moon is Illuminated
Oct 3
Waning Gibbous
Oct 8
Last Quarter
Oct 15
New
Oct 21
First Quarter
Oct 29
Full

Hourly Weather History & Observations

Time (CDT) Temp. Windchill Dew Point Humidity Pressure Visibility Wind Dir Wind Speed Gust Speed Precip Events Conditions
12:13 AM 46.4 °F 44.3 °F 37.4 °F 71% 29.83 in 10.0 mi South 4.6 mph - N/A   Clear
12:33 AM 46.4 °F 44.3 °F 37.4 °F 71% 29.83 in 10.0 mi South 4.6 mph - N/A   Clear
12:53 AM 48.2 °F - 37.4 °F 66% 29.83 in 10.0 mi South 3.5 mph - N/A   Clear
1:13 AM 48.2 °F - 37.4 °F 66% 29.83 in 10.0 mi SSW 3.5 mph - N/A   Clear
1:33 AM 48.2 °F - 37.4 °F 66% 29.84 in 10.0 mi South 4.6 mph - N/A   Clear
1:53 AM 48.2 °F - 37.4 °F 66% 29.84 in 10.0 mi SSW 4.6 mph - N/A   Clear
2:13 AM 50.0 °F - 39.2 °F 66% 29.84 in 10.0 mi SSW 4.6 mph - N/A   Clear
2:33 AM 51.8 °F - 39.2 °F 62% 29.83 in 10.0 mi SSW 4.6 mph - N/A   Clear
2:53 AM 51.8 °F - 39.2 °F 62% 29.84 in 10.0 mi SSW 5.8 mph - N/A   Clear
3:13 AM 51.8 °F - 37.4 °F 58% 29.83 in 10.0 mi SSW 5.8 mph - N/A   Clear
3:33 AM 51.8 °F - 39.2 °F 62% 29.83 in 10.0 mi SSW 5.8 mph - N/A   Clear
3:53 AM 51.8 °F - 37.4 °F 58% 29.83 in 10.0 mi SSW 5.8 mph - N/A   Clear
4:13 AM 51.8 °F - 39.2 °F 62% 29.83 in 10.0 mi SSW 5.8 mph - N/A   Clear
4:33 AM 51.8 °F - 37.4 °F 58% 29.83 in 10.0 mi SSW 6.9 mph - N/A   Clear
4:53 AM 50.0 °F - 37.4 °F 62% 29.83 in 10.0 mi SSW 5.8 mph - N/A   Clear
5:13 AM 48.2 °F - 37.4 °F 66% 29.83 in 10.0 mi SSW 3.5 mph - N/A   Clear
5:33 AM 48.2 °F - 37.4 °F 66% 29.84 in 10.0 mi Calm Calm - N/A   Clear
5:53 AM 42.8 °F - 37.4 °F 81% 29.85 in 10.0 mi Calm Calm - N/A   Clear
6:13 AM 42.8 °F - 37.4 °F 81% 29.86 in 10.0 mi Calm Calm - N/A   Clear
6:33 AM 39.2 °F - 37.4 °F 93% 29.87 in 10.0 mi Calm Calm - N/A   Clear
6:53 AM 41.0 °F 39.0 °F 37.4 °F 87% 29.87 in 10.0 mi WSW 3.5 mph - N/A   Clear
7:13 AM 37.4 °F - 33.8 °F 87% 29.87 in 10.0 mi Calm Calm - N/A   Clear
7:33 AM 39.2 °F 37.0 °F 35.6 °F 87% 29.88 in 10.0 mi SE 3.5 mph - N/A   Clear
7:53 AM 39.2 °F - 35.6 °F 87% 29.88 in 10.0 mi Calm Calm - N/A   Clear
8:12 AM 42.8 °F - 37.4 °F 81% 29.89 in 10.0 mi Calm Calm - N/A   Clear
8:33 AM 46.4 °F - 39.2 °F 76% 29.89 in 10.0 mi Calm Calm - N/A   Clear
8:53 AM 50.0 °F - 39.2 °F 66% 29.89 in 10.0 mi Calm Calm - N/A   Clear
9:12 AM 51.8 °F - 39.2 °F 62% 29.89 in 10.0 mi SW 3.5 mph - N/A   Clear
9:33 AM 53.6 °F - 39.2 °F 58% 29.89 in 10.0 mi SW 3.5 mph - N/A   Clear
9:53 AM 55.4 °F - 37.4 °F 51% 29.89 in 10.0 mi Calm Calm - N/A   Clear
10:12 AM 57.2 °F - 37.4 °F 48% 29.90 in 10.0 mi West 3.5 mph - N/A   Clear
10:33 AM 59.0 °F - 37.4 °F 45% 29.90 in 10.0 mi Calm Calm - N/A   Clear
10:53 AM 60.8 °F - 37.4 °F 42% 29.90 in 10.0 mi South 3.5 mph - N/A   Clear
11:12 AM 60.8 °F - 37.4 °F 42% 29.90 in 10.0 mi Calm Calm - N/A   Clear
11:33 AM 62.6 °F - 37.4 °F 39% 29.90 in 10.0 mi Calm Calm - N/A   Clear
11:53 AM 64.4 °F - 37.4 °F 37% 29.90 in 10.0 mi Calm Calm - N/A   Clear
12:12 PM 64.4 °F - 37.4 °F 37% 29.89 in 10.0 mi Calm Calm - N/A   Clear
12:33 PM 66.2 °F - 37.4 °F 35% 29.89 in 10.0 mi Calm Calm - N/A   Clear
12:53 PM 66.2 °F - 37.4 °F 35% 29.89 in 7.0 mi Calm Calm - N/A   Clear
1:12 PM 68.0 °F - 37.4 °F 33% 29.88 in 7.0 mi Calm Calm - N/A   Clear
1:33 PM 68.0 °F - 37.4 °F 33% 29.87 in 4.0 mi Calm Calm - N/A   Haze
1:53 PM 69.8 °F - 35.6 °F 28% 29.87 in 4.0 mi Calm Calm - N/A   Haze
2:13 PM 71.6 °F - 37.4 °F 29% 29.87 in 7.0 mi WNW 4.6 mph - N/A   Clear
2:33 PM 71.6 °F - 35.6 °F 27% 29.86 in 7.0 mi Calm Calm - N/A   Clear
2:53 PM 69.8 °F - 35.6 °F 28% 29.86 in 7.0 mi WNW 4.6 mph - N/A   Clear
3:13 PM 71.6 °F - 37.4 °F 29% 29.86 in 7.0 mi WNW 3.5 mph - N/A   Clear
3:32 PM 71.6 °F - 35.6 °F 27% 29.86 in 7.0 mi WSW 5.8 mph - N/A   Clear
3:53 PM 71.6 °F - 35.6 °F 27% 29.87 in 7.0 mi WNW 4.6 mph - N/A   Clear
4:13 PM 71.6 °F - 35.6 °F 27% 29.87 in 10.0 mi NW 5.8 mph - N/A   Clear
4:33 PM 71.6 °F - 37.4 °F 29% 29.88 in 10.0 mi NNW 6.9 mph - N/A   Clear
4:53 PM 69.8 °F - 35.6 °F 28% 29.88 in 10.0 mi NNW 3.5 mph - N/A   Clear
5:13 PM 69.8 °F - 35.6 °F 28% 29.88 in 10.0 mi North 3.5 mph - N/A   Clear
5:33 PM 69.8 °F - 33.8 °F 27% 29.88 in 10.0 mi North 3.5 mph - N/A   Clear
5:53 PM 68.0 °F - 35.6 °F 30% 29.89 in 10.0 mi North 4.6 mph - N/A   Clear
6:13 PM 66.2 °F - 37.4 °F 35% 29.89 in 10.0 mi NNE 3.5 mph - N/A   Clear
6:33 PM 64.4 °F - 39.2 °F 40% 29.90 in 10.0 mi Calm Calm - N/A   Clear
6:53 PM 64.4 °F - 39.2 °F 40% 29.90 in 10.0 mi NNE 3.5 mph - N/A   Clear
7:12 PM 62.6 °F - 41.0 °F 45% 29.91 in 10.0 mi Calm Calm - N/A   Clear
7:33 PM 62.6 °F - 41.0 °F 45% 29.91 in 10.0 mi Calm Calm - N/A   Clear
7:53 PM 60.8 °F - 41.0 °F 48% 29.91 in 10.0 mi Calm Calm - N/A   Clear
8:12 PM 60.8 °F - 42.8 °F 52% 29.92 in 10.0 mi Calm Calm - N/A   Clear
8:33 PM 57.2 °F - 42.8 °F 59% 29.91 in 10.0 mi Calm Calm - N/A   Clear
8:53 PM 59.0 °F - 39.2 °F 48% 29.91 in 7.0 mi Calm Calm - N/A   Clear
9:12 PM 59.0 °F - 41.0 °F 51% 29.90 in 7.0 mi NE 5.8 mph - N/A   Scattered Clouds
9:33 PM 59.0 °F - 42.8 °F 55% 29.91 in 7.0 mi Calm Calm - N/A   Clear
9:53 PM 59.0 °F - 42.8 °F 55% 29.91 in 7.0 mi Calm Calm - N/A   Clear
10:13 PM 59.0 °F - 42.8 °F 55% 29.91 in 7.0 mi NE 4.6 mph - N/A   Clear
10:33 PM 59.0 °F - 42.8 °F 55% 29.92 in 10.0 mi Calm Calm - N/A   Clear
10:53 PM 57.2 °F - 42.8 °F 59% 29.92 in 10.0 mi NE 4.6 mph - N/A   Clear
11:13 PM 57.2 °F - 42.8 °F 59% 29.92 in 10.0 mi ENE 3.5 mph - N/A   Clear
11:33 PM 57.2 °F - 42.8 °F 59% 29.92 in 10.0 mi Calm Calm - N/A   Clear
11:52 PM 57.2 °F - 42.8 °F 59% 29.92 in 10.0 mi Calm Calm - N/A   Clear